Location: Culleoka
(33.1312°N, 96.4919°W)
Time: 15:38:17
(UTC+00:00)

GPS 2-04 Rocket1 - Pass Details

Date: 09 July 2022
Orbit: 403 x 509 km, 35.6° (Epoch: 16 August)

Event Time Altitude Azimuth Distance (km) Brightness Sun altitude
Exits shadow 10:02:03 13° 166° (SSE) 1,267 4.4 -15.2°
Maximum altitude 10:02:54 14° 149° (SSE) 1,214 4.5 -15.0°
Drops below altitude 10° 10:04:45 10° 114° (ESE) 1,444 5.3 -14.7°
Sets 10:07:33 0° 88° (E) 2,310 6.9 -14.3°
